"Pseudo-MPEC" for P10ZMLy

Created 2020 May 25 21:07:14 UT using Find_Orb

Click here for an explanation of pseudo-MPECs

 
 Astrometry: 
     P10ZMLy  C2020 04 22gnN'h[1;er.Pn7At2:=n)Ps4Y$1Cpy0'8,bI'AdWiURiOd]F2gv_F51
     P10ZMLy  C2020 04 22!/fR4?cRFU9b$oiyYi4,2=Jpd7]`v8Jn$(Ce5Ct(+xwNR0(Ax4S;F51
     P10ZMLy  C2020 04 268#YO:@RDtVFWSfFP`N[9%ckik2gY?\Lw!76'jZVZ3.FY^a-tf]EUF51
     P10ZMLy  C2020 04 26)1BPXh'Nj?dKcx'=Yn%YMtZ8NOsU2*QO50=8a5#gRUHJ4=OHjmB%F51
     P10ZMLy  C2020 04 26_K%iD5!)fPPn4i/$FvAstrometryV!EZj08,W41q_k`^agF8_Q`MF51
     P10ZMLy  C2020 04 28tIQ@buEBe;,#Gdl35+Xui^60^(o5hC/lN)l6%73j,?HS]n@ryxGiF51
     P10ZMLy  C2020 04 28\^SufI0/Ft!t#me\^xMj=OwUC'BOeSg?NSB8hf=D0'H%-8w\6RYTF51
     P10ZMLy  C2020 04 283JbA#):+]\DS$0qAT[H[*(hvY%f1^tx:E;6HDPT'gR5kb,fqAiR%F51
     P10ZMLy  C2020 04 29.27439 14 12 16.21 -20 54 46.2    ~4T77 21.5 GVNEOCPV06
     P10ZMLy  C2020 04 29.27895 14 12 15.42 -20 54 37.8    ~4T77 21.1 GVNEOCPV06
     P10ZMLy  C2020 04 29.28353 14 12 14.63 -20 54 28.7    ~4T77 21.8 GVNEOCPV06
     P10ZMLy  C2020 04 29qtPSh;l=m,b.BdSMr4nJI_gU^QojV@2JrU?dr2JZAGxtNq.BuX[bF51
     P10ZMLy  C2020 04 29ga0jOP/aredacted;[sy4,#HMJGGxr/tmgV0/=0'N!VXd3yZ,xI8F51
     P10ZMLy KC2020 04 29!q?r@XjPS^q/nL$.TYdgw\v=,NfyP7r009hiA^:P,uWe]ex!Rv^R474
     P10ZMLy KC2020 04 29r!9!AlQXdah#)iFK'aUh6f-sR+t^[Xk.3*/TP:g:!Ur^xrc3?HI+474
     P10ZMLy KC2020 04 29UB7:=vvOg*cK9=US*o.:AF8:0rMOtQ4OsDj@@C$)Hq#$_Lfyn2kb474
     P10ZMLy  C2020 04 30.25154 14 09 29.96 -20 23 48.4    ~4U6M 21.8 GVNEOCPV06
     P10ZMLy  C2020 04 30.25549 14 09 29.25 -20 23 41.0    ~4U6M 21.9 GVNEOCPV06
     P10ZMLy 2C2020 05 02BdiK^@`h:f2*B,$?0-g'bj_GclickKF0]7LUQn\k\P1H[-T9LG9yF65
     P10ZMLy 2C2020 05 02/)^0F/V0lG]LWSXK5#af5/!B=:o[;.Z$l4lMDVsFmF#F$(\'ipx#F65
     P10ZMLy 2C2020 05 02m;qbv3J07pNbUJ?NJ2NMY,UohDq^vNhereQkEmA2rQ$h%for*+4.F65
     P10ZMLy 2C2020 05 02JcY6k`Ixprf:C$kq0\qW$]OUar5EW#.[@gq2'u0wmPl7T].sYvw=F65
     P10ZMLy 1C2020 05 11%-$wv$.y2i@SaRZ62)F$@;)?hbo@YtM8L#ZNJv'e(;!DM^j+%EbiQ62
     P10ZMLy 1C2020 05 11$3/^-6v39ln;trlU]tp8?xvc]U.^=Mv96Z!L04?\4vT+k!!]tS4]Q62
     P10ZMLy KC2020 05 137iFuaL]@8qA[/]7lqgxrlSs)M'=d-0mH7o_WaVRY7;Nag;b?3.r`474
     P10ZMLy KC2020 05 137ygUd_tRdeG#vbY(AJD7R_YGGx4/KNGJVh!Lc.j(Um%rL-mP++(k474
     P10ZMLy KC2020 05 13Olp=Ak#Fa34=_QKOZZB9RHFFx,+ZwIcC?E;q;35OPN[!#o[y.4!.474
     P10ZMLy KC2020 05 134y:?3kBv5aV4V(kq;Gk/\FfQ'f9ogG]A.ax+v`;eCV4865)yqOf1474
     P10ZMLy  C2020 05 14,;MdnX@W@?bpYW5O!E=96Rw5#!Y7-tr[76)IV`COnbZ)85)U(?bYF52
     P10ZMLy  C2020 05 14Te`VEw=sIRd_64P1E-%.AcF0lU8e=r?]XO(/GUexplanationYS@F52
     P10ZMLy  C2020 05 14i.4t?4'yBB2bwJMovFR.vZrwiQP/Itq8nkLOjHQ`j=HAAO6uhKxHF52
     P10ZMLy  C2020 05 14l)yUSsMEAqpbs!HcJ^9Su1N=8Tt6f@UuMNrI@C?\t^Yl.=,al=j0F52
     P10ZMLy 2C2020 05 18/D*FJ@Vym^?bvb'YXV=7T.A!115/o5dsUtr2NutK]V*o2!,4';wIF65
     P10ZMLy 2C2020 05 18#4'lDP(b#7\O:n$5iOME3B14)yxvenSyOFw%(9\?u1YD5I3dP2wLF65
     P10ZMLy ^C2020 05 20.29050013 22 20.328-10 24 03.75   ~5K7b 22.45GVNEOCP568
     P10ZMLy ^C2020 05 20.29167813 22 20.196-10 24 01.91   ~5K7b 22.42GVNEOCP568
     P10ZMLy ^C2020 05 20.29285713 22 20.061-10 24 00.04   ~5K7b 22.20GVNEOCP568

Station data:
(474) Mount John Observatory, Lake Tekapo  (S43.987388 E170.464960)  New
   Zealand.  Observers A. C. Gilmore, P. M. Kilmartin. Measurer P. M.
   Kilmartin. 1.0-m f/7.7 reflector + CCD.
(568) Mauna Kea  (N19.826116 W155.472200)  US/Hawaii.
(F51) Pan-STARRS 1, Haleakala  (N20.707235 W156.255910)  US/Hawaii.
   Observers N. Primak, A. Schultz, S. Watters, J. Thiel, T. Goggia. Measurer
   PS1 Science Consortium. 1.8-m Ritchey-Chrétien + CCD.
(F52) Pan-STARRS 2, Haleakala  (N20.707384 W156.255910)  US/Hawaii. 1.8-m
   Ritchey-Chrétien + CCD.
(F65) Haleakala-Faulkes Telescope North  (N20.707094 W156.257600)  US/Hawaii.
   2.0-m Faulkes Telescope North.
(Q62) iTelescope Observatory, Siding Spring  (S31.273289 E149.064420)
   Australia/NSW. 0.50-m f/6.8 astrograph + CCD + focal reducer, 0.70-m f/6.6
   astrograph + CCD.
(V06) Catalina Sky Survey-Kuiper  (N32.416847 W110.732550)  US/Arizona.
   Observers T. A. Pruyne, B. M. Africano, E. J. Christensen, G. A. Farneth,
   D. C. Fuls, A. R. Gibbs, A. D. Grauer, H. Gröller, J. A. Johnson, R. A.
   Kowalski, S. M. Larson, G. J. Leonard, D. Rankin, R. L. Seaman, F. C.
   Shelly. 1.55-m reflector + CCD.

Orbital elements:  P10ZMLy
   Perihelion 2019 Dec 21.326135 +/- 0.288 TT =  7:49:38 (JD 2458838.826135)
Epoch 2020 May 20.0 TT = JDT 2458989.5                        AutoNEOCP
M   0.01189428 +/- 0.018            (J2000 ecliptic)
n   0.00007894 +/- 8.58e-5          Peri.  312.87467 +/- 0.07
a 538.190165 +/- 386                Node   213.11830 +/- 0.0047
e   0.9952081 +/- 0.00346           Incl.  137.86801 +/- 0.020
P  12485                   H 17.7   G  0.15   U  6.5  
q 2.57894243 +/- 0.00146    Q 1073.80138 +/- 238
From 37 observations 2020 Apr. 22-May 20; mean residual 0".27
Residuals in arcseconds: 
200422 F51  .01+  .07+    200429 474  .14-  .28+    200513 474  .54-  .33-    
200422 F51  .06+  .05+    200429 474  .11-  .10+    200513 474  .14-  .12+    
200426 F51  .03+  .28-    200429 474  .22-  .22+    200514 F52  .09-  .22+    
200426 F51  .04-  .02+    200430 V06  .19+  .15-    200514 F52  .56-  .16+    
200426 F51  .23+  .21-    200430 V06  .31-  .26-    200514 F52  .49-  .26-    
200428 F51  .08-  .02+    200502 F65  .32-  .14+    200514 F52  .09-  .34+    
200428 F51  .61+  .09+    200502 F65  .13+  .09-    200518 F65  .49+  .00     
200428 F51  .39-  .20+    200502 F65  .18+  .05-    200518 F65  .49+  .22+    
200429 V06  .03+  .05-    200502 F65  .05-  .09+    200520 568  .13-  .01-    
200429 V06  .01+  .31-    200511 Q62  .64+  .08-    200520 568  .12-  .04-    
200429 V06  .05+  .10+    200511 Q62  1.1+  .10-    200520 568  .15-  .04-    
200429 F51  .04+  .00     200513 474  .52-  .26-    
200429 F51  .17-  .07+    200513 474  .38-  .05-    

Ephemerides (geocentric):
Date (UTC) HH   RA              Dec         delta   r     elong  mag " sig PA
---- -- -- --  -------------   -----------  ------ ------ -----  --- ---- ---
2020 05 25 21  13 12 48.620   -08 03 57.80  2.2581 3.0597 135.0 22.7 .513 100
2020 05 25 22  13 12 44.705   -08 02 58.55  2.2589 3.0600 135.0 22.7 .517 100
2020 05 25 23  13 12 40.795   -08 01 59.36  2.2597 3.0602 134.9 22.7 .521 100
2020 05 26 00  13 12 36.891   -08 01 00.21  2.2605 3.0604 134.8 22.7 .524 100
2020 05 26 01  13 12 32.991   -08 00 01.12  2.2613 3.0607 134.8 22.7 .528 100
2020 05 26 02  13 12 29.096   -07 59 02.08  2.2621 3.0609 134.7 22.7 .532 100
2020 05 26 03  13 12 25.207   -07 58 03.10  2.2629 3.0611 134.7 22.7 .535 100
2020 05 26 04  13 12 21.323   -07 57 04.16  2.2637 3.0613 134.6 22.7 .539 100
2020 05 26 05  13 12 17.443   -07 56 05.28  2.2646 3.0616 134.5 22.7 .543 100
2020 05 26 06  13 12 13.569   -07 55 06.44  2.2654 3.0618 134.5 22.7 .547 101
2020 05 26 07  13 12 09.700   -07 54 07.66  2.2662 3.0620 134.4 22.7 .550 101
2020 05 26 08  13 12 05.836   -07 53 08.94  2.2670 3.0623 134.4 22.7 .554 101
2020 05 26 09  13 12 01.977   -07 52 10.26  2.2678 3.0625 134.3 22.7 .558 101
2020 05 26 10  13 11 58.123   -07 51 11.64  2.2686 3.0627 134.2 22.7 .562 101
2020 05 26 11  13 11 54.274   -07 50 13.06  2.2695 3.0629 134.2 22.7 .565 101
2020 05 26 12  13 11 50.430   -07 49 14.54  2.2703 3.0632 134.1 22.7 .569 101
2020 05 26 13  13 11 46.591   -07 48 16.08  2.2711 3.0634 134.1 22.7 .573 101
2020 05 26 14  13 11 42.757   -07 47 17.66  2.2719 3.0636 134.0 22.7 .577 101
2020 05 26 15  13 11 38.928   -07 46 19.29  2.2727 3.0639 133.9 22.7 .581 101
2020 05 26 16  13 11 35.105   -07 45 20.98  2.2736 3.0641 133.9 22.7 .585 101
2020 05 26 17  13 11 31.286   -07 44 22.72  2.2744 3.0643 133.8 22.7 .588 101
2020 05 26 18  13 11 27.472   -07 43 24.51  2.2752 3.0646 133.8 22.7 .592 101
2020 05 26 19  13 11 23.664   -07 42 26.36  2.2760 3.0648 133.7 22.7 .596 101
2020 05 26 20  13 11 19.860   -07 41 28.25  2.2769 3.0650 133.6 22.7 .600 101
2020 05 26 21  13 11 16.062   -07 40 30.20  2.2777 3.0652 133.6 22.7 .604 101
2020 05 26 22  13 11 12.268   -07 39 32.20  2.2785 3.0655 133.5 22.7 .608 101
2020 05 26 23  13 11 08.480   -07 38 34.25  2.2793 3.0657 133.4 22.7 .612 101
2020 05 27 00  13 11 04.696   -07 37 36.36  2.2802 3.0659 133.4 22.7 .616 101
2020 05 27 01  13 11 00.918   -07 36 38.51  2.2810 3.0662 133.3 22.7 .620 101
2020 05 27 02  13 10 57.144   -07 35 40.72  2.2818 3.0664 133.3 22.7 .624 101
2020 05 27 03  13 10 53.376   -07 34 42.98  2.2826 3.0666 133.2 22.8 .628 102
2020 05 27 04  13 10 49.613   -07 33 45.29  2.2835 3.0669 133.1 22.8 .632 102
2020 05 27 05  13 10 45.854   -07 32 47.65  2.2843 3.0671 133.1 22.8 .636 102
2020 05 27 06  13 10 42.101   -07 31 50.07  2.2851 3.0673 133.0 22.8 .640 102
2020 05 27 07  13 10 38.352   -07 30 52.54  2.2860 3.0675 133.0 22.8 .644 102
2020 05 27 08  13 10 34.609   -07 29 55.06  2.2868 3.0678 132.9 22.8 .648 102
2020 05 27 09  13 10 30.870   -07 28 57.63  2.2876 3.0680 132.8 22.8 .652 102
2020 05 27 10  13 10 27.137   -07 28 00.25  2.2885 3.0682 132.8 22.8 .656 102
2020 05 27 11  13 10 23.409   -07 27 02.93  2.2893 3.0685 132.7 22.8 .660 102
2020 05 27 12  13 10 19.685   -07 26 05.66  2.2901 3.0687 132.7 22.8 .664 102
2020 05 27 13  13 10 15.967   -07 25 08.44  2.2910 3.0689 132.6 22.8 .668 102
2020 05 27 14  13 10 12.253   -07 24 11.27  2.2918 3.0692 132.5 22.8 .672 102
2020 05 27 15  13 10 08.545   -07 23 14.15  2.2926 3.0694 132.5 22.8 .677 102
2020 05 27 16  13 10 04.841   -07 22 17.09  2.2935 3.0696 132.4 22.8 .681 102
2020 05 27 17  13 10 01.143   -07 21 20.07  2.2943 3.0699 132.4 22.8 .685 102
2020 05 27 18  13 09 57.449   -07 20 23.11  2.2951 3.0701 132.3 22.8 .689 102
2020 05 27 19  13 09 53.761   -07 19 26.21  2.2960 3.0703 132.2 22.8 .693 102
2020 05 27 20  13 09 50.077   -07 18 29.35  2.2968 3.0705 132.2 22.8 .697 102